Вернуться в каталог

STARLINK-31438

АктивенСвязьVLEO
NORAD 59234·PAYLOAD·🇺🇸 United States

Запущен Mar 16, 2024 с Cape Canaveral Space Force Station

Loading…

Ближайшие Пролёты (ближайшие 24 часа)

TLE

СвежийSource: CelesTrak SupGP

Эпоха: Sep 14, 2026, 22:45 UTC

1 59234C 24049D   26257.94840278 -.00043706  00000+0 -15832-2 0  2575
2 59234  42.9998 143.6986 0001423 269.8863 245.7069 15.27596463    17

Отслеживайте STARLINK-31438 в реальном времени с AllMySat

Download on the App Store